Weather History for Belize / Phillip Goldston Intl. Airport, Belize

Change the Weather History Date:

Friday, February 1, 2013

  Actual Average Record
Temperature  
Mean Temperature 75 °F -  
Max Temperature 79 °F 83 °F - ()
Min Temperature 71 °F - - ()
Cooling Degree Days 10    
Growing Degree Days 25 (Base 50)    
Moisture  
Dew Point 72 °F    
Average Humidity 87    
Maximum Humidity 100    
Minimum Humidity 71    
Precipitation  
Precipitation 0.04 in 0.09 in - ()
Sea Level Pressure  
Sea Level Pressure 30.09 in    
Wind  
Wind Speed 7 mph ()    
Max Wind Speed 10 mph    
Max Gust Speed -    
Visibility 7.3 miles    
Events Rain    
T = Trace of Precipitation, MM = Missing Value Source: Averaged Metar Reports

Daily Weather History Graph

Daily Weather History Graph

Search for Another Location

Airport:

Trip Planner

Search our weather history database for the weather conditions in past years. The results will help you decide how hot, cold, wet, or windy it might be!

Date:

Astronomy

Feb. 01, 2013 Rise Set
Actual Time 6:25 AM CST 5:48 PM CST
Civil Twilight 6:02 AM CST 6:11 PM CST
Nautical Twilight 5:36 AM CST 6:37 PM CST
Astronomical Twilight 5:10 AM CST 7:03 PM CST
Moon 10:52 PM CST (2/1) 9:56 AM CST (2/1)
Length of Visible Light 12h 08m
Length of Day
11h 23m
Waning Gibbous, 70% of the Moon is Illuminated
Feb 1
Waning Gibbous
Feb 3
Last Quarter
Feb 10
New
Feb 17
First Quarter
Feb 25
Full

Hourly Weather History & Observations

Time (CST) Temp. Dew Point Humidity Pressure Visibility Wind Dir Wind Speed Gust Speed Precip Events Conditions
12:00 AM 77 °F 74 °F 90% 30.09 in 12 mi North 6.9 mph - -   Partly Cloudy
3:00 AM 74 °F 72 °F 92% 30.06 in 12 mi North 5.8 mph - -   Partly Cloudy
5:00 AM 71.6 °F 71.6 °F 100% 30.06 in 6.2 mi North 5.8 mph - N/A   Partly Cloudy
5:30 AM 71.6 °F 71.6 °F 100% 30.07 in 6.2 mi NNW 5.8 mph - N/A   Mostly Cloudy
5:31 AM 71.6 °F 71.6 °F 100% 30.07 in 6.2 mi NNW 5.8 mph - N/A   Mostly Cloudy
6:00 AM 73.4 °F 71.6 °F 94% 30.08 in 6.2 mi North 8.1 mph - N/A   Mostly Cloudy
6:25 AM 73.4 °F 71.6 °F 94% 30.09 in 6.2 mi North 8.1 mph - N/A   Mostly Cloudy
7:00 AM 73.4 °F 71.6 °F 94% 30.11 in 6.2 mi NNW 8.1 mph - N/A   Mostly Cloudy
7:23 AM 73.4 °F 71.6 °F 94% 30.11 in 6.2 mi NNW 8.1 mph - N/A   Mostly Cloudy
8:00 AM 73.4 °F 71.6 °F 94% 30.12 in 6.2 mi NNW 6.9 mph - N/A   Mostly Cloudy
9:00 AM 77 °F 72 °F 79% 30.13 in 12 mi North 10.4 mph - -   Mostly Cloudy
9:00 AM 77.0 °F 71.6 °F 83% 30.13 in 6.2 mi North 10.4 mph - N/A   Mostly Cloudy
10:00 AM 78.8 °F 71.6 °F 78% 30.13 in 6.2 mi NNE 9.2 mph - N/A   Mostly Cloudy
11:00 AM 78.8 °F 71.6 °F 78% 30.13 in 6.2 mi NNE 8.1 mph - N/A   Mostly Cloudy
12:00 PM 78 °F 73 °F 79% 30.12 in 3 mi ENE 10.4 mph - - Rain Light Rain Showers
12:00 PM 77.0 °F 73.4 °F 89% 30.11 in 3.1 mi ENE 10.4 mph - N/A Rain Light Rain Showers
12:35 PM 77.0 °F 73.4 °F 89% 30.09 in 6.2 mi NNE 6.9 mph - N/A   Mostly Cloudy
1:00 PM 77.0 °F 73.4 °F 89% 30.09 in 6.2 mi NNE 10.4 mph - N/A   Mostly Cloudy
2:00 PM 78.8 °F 73.4 °F 83% 30.06 in 6.2 mi North - - N/A   Mostly Cloudy
3:00 PM 79 °F 71 °F 71% 30.05 in 12 mi NE 9.2 mph - -   Partly Cloudy
3:00 PM 78.8 °F 71.6 °F 78% 30.04 in 6.2 mi NE 9.2 mph - N/A   Mostly Cloudy
4:00 PM 78.8 °F 71.6 °F 78% 30.04 in 6.2 mi NNE 6.9 mph - N/A   Mostly Cloudy
5:00 PM 78.8 °F 71.6 °F 78% 30.05 in 6.2 mi NNE 5.8 mph - N/A   Mostly Cloudy
6:00 PM 77 °F 73 °F 83% 30.06 in 12 mi North 5.8 mph - -   Partly Cloudy
6:00 PM 77.0 °F 73.4 °F 89% 30.06 in 6.2 mi North 5.8 mph - N/A   Mostly Cloudy
9:00 PM 74 °F 71 °F 88% 30.11 in 12 mi North 4.6 mph - -   Mostly Cloudy